This demonstration page uses our WeatherBlox Daily Observations layout. Learn more.

Left ArrowRight Arrow

34.74481, -87.66753

Hourly Observations for May 12, 2022

Temp ( °F °C ) Dew Point ( °F °C ) Humidity (%) Winds ( mph kmh ) Pressure ( in mb ) Visibility ( mi km ) Precip ( " mm )
12:22 am 00:22 Mostly Clear with Mist and Fog 70 21.1 69 20.6 97 97 Calm 30.07 1018 2 2 0.00 0.00
12:34 am 00:34 Mostly Cloudy with Mist and Fog 72 22.2 69 20.6 91 91 Calm 30.06 1018 3 5 0.00 0.00
12:53 am 00:53 Mostly Clear with Mist and Fog 72 22.2 70 21.1 94 94 Calm 30.06 1018 4 6 0.00 0.00
1:17 am 01:17 Clear with Mist and Fog 71 21.7 69 20.6 94 94 Calm 30.05 1018 3 4 0.00 0.00
1:25 am 01:25 Clear with Mist and Fog 71 21.7 68 20 90 90 Calm 30.05 1018 4 6 0.00 0.00
1:40 am 01:40 Clear with Mist and Fog 71 21.7 69 20.6 94 94 Calm 30.05 1018 2 3 0.00 0.00
1:51 am 01:51 Clear with Mist and Fog 72 22 70 21 94 94 Calm 30.05 1018 3 5 0.00 0.00
1:53 am 01:53 Clear with Mist and Fog 71 21.7 69 20.6 94 94 Calm 30.04 1017 4 6 0.00 0.00
1:59 am 01:59 Clear with Mist and Fog 71 21.7 69 20.6 94 94 Calm 30.04 1017 2 3 0.00 0.00
2:12 am 02:12 Clear with Mist and Fog 70 21.1 68 20 93 93 Calm 30.05 1017 1 1 0.00 0.00
2:23 am 02:23 Clear with Fog 71 21.7 69 20.6 94 94 Calm 30.04 1017 0 0 0.00 0.00
2:33 am 02:33 Mostly Clear with Fog 70 21.1 69 20.6 97 97 Calm 30.05 1017 1 1 0.00 0.00
2:41 am 02:41 Mostly Clear with Mist and Fog 70 21.1 69 20.6 97 97 Calm 30.05 1017 3 5 0.00 0.00
2:49 am 02:49 Partly Cloudy with Mist and Fog 70 21 68 20 94 94 Calm 30.05 1017 2 2 0.00 0.00
2:53 am 02:53 Partly Cloudy with Mist and Fog 69 20.6 68 20 96 96 Calm 30.04 1017 1 2 0.00 0.00
3:00 am 03:00 Partly Cloudy with Mist and Fog 69 20.6 68 20 96 96 Calm 30.05 1017 1 1 0.00 0.00
3:13 am 03:13 Mostly Clear with Mist and Fog 69 20.6 68 20 96 96 Calm 30.05 1017 2 3 0.00 0.00
3:20 am 03:20 Clear with Mist and Fog 70 21.1 68 20 93 93 Calm 30.05 1017 4 6 0.00 0.00
3:27 am 03:27 Clear with Mist and Fog 69 20.6 68 20 96 96 Calm 30.05 1017 2 3 0.00 0.00
3:36 am 03:36 Clear with Fog 69 20.6 68 20 96 96 Calm 30.05 1017 1 1 0.00 0.00
3:47 am 03:47 Mostly Cloudy with Fog 70 21 68 20 94 94 Calm 30.05 1017 0 0 0.00 0.00
3:53 am 03:53 Mostly Cloudy with Fog 69 20.6 68 20 96 96 Calm 30.04 1017 0 0 0.00 0.00
4:17 am 04:17 Clear with Mist and Fog 69 20.6 67 19.4 93 93 Calm 30.05 1017 1 1 0.00 0.00
4:30 am 04:30 Mostly Cloudy with Fog 68 20 67 19.4 96 96 Calm 30.05 1018 0 0 0.00 0.00
4:53 am 04:53 Mostly Cloudy with Fog 68 20 67 19.4 96 96 Calm 30.04 1017 1 1 0.00 0.00
5:16 am 05:16 Mostly Cloudy with Fog 67 19.4 67 19.4 100 100 Calm 30.05 1018 0 0 0.00 0.00
5:42 am 05:42 Mostly Cloudy with Fog 68 20 67 19.4 96 96 Calm 30.06 1018 1 1 0.00 0.00
5:49 am 05:49 Mostly Cloudy with Fog 68 20 66 19 94 94 W 3 6 30.06 1018 0 0 0.00 0.00
5:53 am 05:53 Mostly Cloudy with Fog 68 20 67 19.4 96 96 Calm 30.05 1018 1 1 0.00 0.00
5:58 am 05:58 Mostly Cloudy with Mist and Fog 69 20.6 67 19.4 93 93 Calm 30.06 1018 1 2 0.00 0.00
6:04 am 06:04 Mostly Cloudy with Fog 68 20 67 19.4 96 96 WNW 3 6 30.06 1018 0 0 0.00 0.00
6:28 am 06:28 Partly Cloudy with Mist and Fog 69 20.6 67 19.4 93 93 Calm 30.07 1018 1 2 0.00 0.00
6:36 am 06:36 Sunny with Mist and Fog 68 20 67 19.4 96 96 Calm 30.07 1018 4 6 0.00 0.00
6:53 am 06:53 Sunny with Mist and Fog 70 21.1 69 20.6 97 97 Calm 30.06 1018 3 5 0.00 0.00
7:53 am 07:53 Hazy 76 24.4 71 21.7 85 85 Calm 30.07 1018 6 10 0.00 0.00
8:53 am 08:53 Sunny 79 26.1 70 21.1 74 74 E 7 11 30.07 1018 8 13 0.00 0.00
9:53 am 09:53 Sunny 81 27.2 70 21.1 69 69 SE 6 9 30.06 1018 9 14 0.00 0.00
10:53 am 10:53 Cloudy 83 28.3 69 20.6 63 63 VRB 3 6 30.05 1018 10 16 0.00 0.00
11:53 am 11:53 Sunny 85 29.4 70 21.1 61 61 SSW 6 9 30.04 1017 10 16 0.00 0.00
12:53 pm 12:53 Mostly Sunny 88 31.1 70 21.1 55 55 NE 6 9 30.02 1017 10 16 0.00 0.00
1:53 pm 13:53 Mostly Cloudy 88 31.1 69 20.6 54 54 VRB 3 6 30.00 1016 10 16 0.00 0.00
2:53 pm 14:53 Mostly Sunny 89 31.7 69 20.6 52 52 E 6 9 29.98 1015 10 16 0.00 0.00
3:53 pm 15:53 Mostly Cloudy 89 31.7 68 20 50 50 E 5 7 29.96 1015 10 16 0.00 0.00
4:53 pm 16:53 Mostly Sunny 88 31.1 69 20.6 54 54 E 7 11 29.94 1014 10 16 0.00 0.00
5:53 pm 17:53 Sunny 85 29.4 69 20.6 59 59 E 8 13 29.92 1013 10 16 0.00 0.00
6:53 pm 18:53 Mostly Sunny 83 28.3 68 20 61 61 Calm 29.93 1014 10 16 0.00 0.00
7:53 pm 19:53 Mostly Clear 78 25.6 68 20 71 71 Calm 29.93 1014 10 16 0.00 0.00
8:53 pm 20:53 Partly Cloudy 75 23.9 67 19.4 76 76 Calm 29.94 1014 10 16 0.00 0.00
9:53 pm 21:53 Clear 75 23.9 64 17.8 69 69 SE 5 7 29.95 1014 10 16 0.00 0.00
10:53 pm 22:53 Clear 74 23.3 65 18.3 74 74 SSE 3 6 29.95 1014 10 16 0.00 0.00
11:53 pm 23:53 Clear 69 20.6 64 17.8 84 84 Calm 29.94 1014 10 16 0.00 0.00

Powered by AerisWeather